{"data":{"norad_id":56355,"intl_designator":"2023-058AQ","name":"STARLINK-5533","alt_names":[],"object_type":"PAYLOAD","status":"ACTIVE","operator":null,"country":"US","launch_date":"2023-04-27","launch_site_code":"AFWTR","launch_vehicle":null,"mission":null,"orbit_class":"UNKNOWN","rcs_meters":null,"size_class":null,"mass_kg":null,"dimensions":null,"purposes":["comms"],"wikipedia_slug":null,"has_3d_model":false,"image_url":null,"decayed_at":null,"tle_current":{"epoch":"2026-05-25T04:00:03.998880Z","epoch_age_seconds":57305,"freshness":"FRESH","line1":"1 56355U 23058AQ  26145.16671295 -.00015586  00000+0 -67094-3 0  9992","line2":"2 56355  97.5225 145.3885 0001409  83.7718 275.1661 15.22534271  5777","mean_motion":15.22534271,"eccentricity":0.0001409,"inclination_deg":97.5225,"raan_deg":145.3885,"arg_perigee_deg":83.7718,"mean_anomaly_deg":275.1661,"bstar":-0.00067094,"rev_number":577,"period_min":94.579151840977,"perigee_km":497.23065837894,"apogee_km":499.16841001428,"semimajor_km":6876.3365341966,"source":"CELESTRAK","updated_at":"2026-05-25T13:38:18.008192Z"}}}